Content
SEND FEEDBACK

Daily
Averages
Monthly
Summary
United States of America

ANN ARBOR, MICHIGAN


Home > North America > United States > Michigan
Elevation: 759 feet     Latitude: 42 17N     Longitude: 083 43W

WEATHER
 
SELECT A DAY
Number of Records: 206,302;   Date Range: 1/1/95 - 9/30/14
 
SHARE

PRINT THIS DATA

[ ← Previous Day ]
WEATHER ALMANAC - MARCH 1, 2013
[ Next Day → ]
[ °C ]   °F
Weather ElementAverageHighLow
Temperature26.6 °F28.9 °F (2:53 am)25 °F (5:53 pm)
Dewpoint19.8 °F24.1 °F (2:53 am)18 °F (11:53 am)
Humidity75.9 %82 % (2:53 am)71 % (11:53 am)
Barometer30.07 in30.12 in (9:53 pm)29.98 in (2:53 am)
Wind Speed11.2 mph15 mph (6:53 am)
Wind Gust20.7 mph (5:53 pm)
Weather ElementAverage
Visibility10 mi
Wind DirectionSE (139 °)

Weather ElementTotal
Precipitation---
Heating Degree Days38.1 (Base 65)
Averaged from 20 records on March 1, 2013
WEATHER CONDITIONS BREAKOUT
WIND DIRECTION BREAKOUT
WEATHER BY HOUR - MARCH 1, 2013
[ °C ]   °F
Local TimeTemperatureDewpointHumidityBarometerVisibilityWind DirectionWind SpeedGust SpeedPrecipitationEventsConditions
2:53 AM28.9 °F24.1 °F82 %29.98 in10.0 miNorth (10°)12.7 mph18.4 mphOvercast
3:53 AM28.9 °F23.0 °F78 %29.99 in10.0 miNorth (360°)6.9 mphOvercast
4:53 AM28.9 °F21.9 °F75 %29.99 in10.0 miNorth (10°)12.7 mphOvercast
5:53 AM28.0 °F21.9 °F78 %30.01 in10.0 miNorth (360°)12.7 mphOvercast
6:53 AM27.0 °F21.0 °F78 %30.02 in10.0 miNNE (20°)15.0 mph19.6 mphOvercast
7:53 AM27.0 °F19.9 °F75 %30.04 in10.0 miNorth (360°)9.2 mphOvercast
8:53 AM26.1 °F19.9 °F78 %30.06 in10.0 miNorth (360°)12.7 mph18.4 mphOvercast
9:53 AM26.1 °F19.0 °F75 %30.07 in10.0 miNNE (20°)13.8 mph0.00 inOvercast
10:53 AM26.1 °F19.0 °F75 %30.08 in10.0 miNorth (10°)9.2 mphOvercast
11:53 AM26.1 °F18.0 °F71 %30.09 in10.0 miNorth (360°)9.2 mphOvercast
1:53 PM27.0 °F19.0 °F72 %30.08 in10.0 miNorth (350°)10.4 mph17.3 mphOvercast
2:53 PM27.0 °F19.0 °F72 %30.07 in10.0 miNNE (20°)12.7 mphOvercast
3:53 PM27.0 °F19.9 °F75 %30.07 in10.0 miNorth (360°)10.4 mph0.00 inOvercast
4:53 PM26.1 °F19.0 °F75 %30.09 in10.0 miNNE (20°)10.4 mph19.6 mphOvercast
5:53 PM25.0 °F18.0 °F75 %30.10 in10.0 miNNE (20°)10.4 mph20.7 mphOvercast
6:53 PM25.0 °F18.0 °F75 %30.11 in10.0 miNNE (20°)13.8 mphOvercast
7:53 PM25.0 °F19.0 °F78 %30.11 in10.0 miNNE (20°)9.2 mphOvercast
9:53 PM26.1 °F19.0 °F75 %30.12 in10.0 miNNE (30°)10.4 mphOvercast
10:53 PM25.0 °F19.0 °F78 %30.12 in10.0 miNE (40°)13.8 mphOvercast
11:53 PM25.0 °F19.0 °F78 %30.11 in10.0 miNNE (30°)9.2 mphOvercast
Hourly data recorded from KARB, located miles away from Ann Arbor, Michigan







STORIES FROM OUR PARTNERS